Home > Weather > Curitiba > Past weeks

Flag for Brazil Weather for the Past 2 Weeks in Curitiba, Paraná, Brazil

Now
72 °F

Thunderstorms. Partly cloudy.


Feels Like: 69 °F
Forecast: 68 / 82 °F
Wind: 6 mph from North

Location: Curitiba Aeroporto

Current Time: Feb 10, 2016 at 12:47:21 AM

Latest Report: Feb 10, 2016 at 12:00 AM


Visibility: 3 mi

Pressure: N/A

Humidity: 88%

Dew point: 68 °F

Location of CuritibaLocation

Historic Weather in Curitiba — Graph

°F

Curitiba Temperature Yesterday

Maximum temperature yesterday: 86 °F (at 3:00 PM)
Minimum temperature yesterday: 70 °F (at 7:00 AM)
Average temperature yesterday: 77 °F

High & Low Weather Summary for the Past Weeks

 TemperatureHumidityPressure
High86 °F (Jan 26, 3:00 PM)100% (Jan 30, 4:00 AM)30.21 "Hg (Jan 30, 4:00 AM)
Low32 °F (Feb 2, 3:00 PM)35% (Feb 5, 5:00 PM)29.89 "Hg (Jan 26, 5:00 PM)
Average72 °F82%30.08 "Hg
* Reported Jan 25 11:00 PM — Feb 9 11:00 PM, Curitiba, Weather by CustomWeather, © 2016

Note: Actual official high and low records may vary slightly from our data, if they occured in-between our weather recording intervals... More about our weather records

Advertising

Curitiba Weather History for the Previous 24 Hours

 ConditionsComfort  
Time TempWeatherWind HumidityBarometerVisibility
11:00 PM
Tue, Feb 9
70 °FThunderstorms. Passing clouds.10 mph94%N/A2 mi
10:00 PM70 °FThunderstorms. Partly cloudy.5 mph88%30.09 "Hg2 mi
9:00 PM70 °FThunderstorms. Passing clouds.14 mph83%N/A2 mi
8:00 PM81 °FScattered clouds.6 mph66%30.04 "HgN/A
7:00 PM82 °FScattered clouds.10 mph62%30.04 "HgN/A
6:00 PM86 °FPartly sunny.9 mph46%30.04 "HgN/A
5:00 PM86 °FPartly sunny.12 mph46%30.01 "HgN/A
4:00 PM86 °FPartly sunny.14 mph46%30.04 "HgN/A
3:00 PM86 °FPartly sunny.13 mph49%30.07 "HgN/A
1:00 PM84 °FPartly sunny.12 mph55%30.09 "HgN/A
12:00 PM82 °FPartly sunny.12 mph62%30.12 "HgN/A
11:00 AM79 °FScattered clouds.12 mph70%30.12 "HgN/A
10:00 AM77 °FScattered clouds.14 mph74%30.12 "HgN/A
9:00 AM75 °FPartly sunny.7 mph78%30.12 "HgN/A
8:00 AM72 °FPassing clouds.8 mph88%30.09 "HgN/A
7:00 AM70 °FPassing clouds.5 mph94%30.09 "HgN/A
6:00 AM72 °FPassing clouds.5 mph88%30.09 "HgN/A
3:00 AM72 °FPassing clouds.2 mph94%30.09 "HgN/A
2:00 AM72 °FPassing clouds.2 mph88%30.12 "HgN/A
1:00 AM72 °FPassing clouds.3 mph88%30.12 "HgN/A
12:00 AM72 °FPassing clouds.5 mph94%30.12 "HgN/A
Weather by CustomWeather, © 2016

See weather overviewHow to use our weather pages